DW7355 Weather Reports


time (UTC)temp
C
wind
direction
speed
KPH
gust
KPH
rain 1hr
cm
rain 24hr
cm
rain mn
cm
humidity
%
barometer
mb
20260505041600 13 197 1.6 11.3 0.00 0.00 0.00 65 1010.3
20260505040051 13 218 3.2 9.7 0.00 0.00 0.00 64 1010.5
20260505034550 13 243 1.6 11.3 0.00 0.00 0.00 63 1010.2
20260505033050 13 329 1.6 8.0 0.00 0.00 0.00 61 1010.2
20260505031605 13 136 3.2 14.5 0.00 0.00 0.00 60 1010.2
20260505030049 14 295 1.6 11.3 0.00 0.00 0.00 59 1010.2
20260505024549 14 238 1.6 14.5 0.00 0.00 0.00 57 1010.2
20260505023054 14 217 4.8 14.5 0.00 0.00 0.00 56 1010.4
20260505021546 15 214 3.2 8.0 0.00 0.00 0.00 54 1010.4
20260505020045 15 229 3.2 11.3 0.00 0.00 0.00 53 1010.3
20260505014545 15 205 4.8 17.7 0.00 0.00 0.00 51 1010.1
20260505013052 15 233 3.2 16.1 0.00 0.00 0.00 50 1010.0
20260505011545 16 297 3.2 12.9 0.00 0.00 0.00 49 1009.8
20260505010045 16 186 3.2 19.3 0.00 0.00 0.00 48 1009.5
20260505004549 16 257 3.2 17.7 0.00 0.00 0.00 46 1009.2
20260505003043 17 191 6.4 22.5 0.00 0.00 0.00 46 1008.9
20260505001542 17 187 6.4 16.1 0.00 0.00 0.00 45 1008.3
20260505000057 17 283 4.8 12.9 0.00 0.00 0.00 45 1008.0
20260504234541 18 15 6.4 17.7 0.00 0.00 0.00 44 1007.8
20260504233040 18 214 6.4 17.7 0.00 0.00 0.00 43 1007.6
20260504231541 18 340 3.2 25.7 0.00 0.00 0.00 42 1007.3
20260504230048 20 143 3.2 17.7 0.00 0.00 0.00 39 1006.9
20260504224537 20 281 6.4 16.1 0.00 0.00 0.00 37 1006.6
20260504223036 20 208 6.4 22.5 0.00 0.00 0.00 36 1006.5
20260504221549 21 295 4.8 20.9 0.00 0.00 0.00 33 1006.4
20260504220034 22 232 4.8 16.1 0.00 0.00 0.00 30 1006.4
20260504214535 22 150 6.4 17.7 0.00 0.00 0.00 29 1006.4
20260504213041 22 156 8.0 20.9 0.00 0.00 0.00 29 1006.4
20260504211532 22 298 9.7 22.5 0.00 0.00 0.00 28 1006.2
20260504210032 22 289 4.8 24.1 0.00 0.00 0.00 28 1006.3
20260504204539 22 295 8.0 19.3 0.00 0.00 0.00 28 1006.3
20260504203031 22 290 6.4 22.5 0.00 0.00 0.00 28 1006.5
20260504201530 22 263 6.4 24.1 0.00 0.00 0.00 27 1006.4
20260504200027 22 275 6.4 17.7 0.00 0.00 0.00 26 1006.5
20260504194527 22 301 8.0 27.4 0.00 0.00 0.00 25 1006.5
20260504193025 22 264 8.0 24.1 0.00 0.00 0.00 25 1006.6
20260504191525 22 309 4.8 17.7 0.00 0.00 0.00 25 1006.6
20260504190024 22 294 12.9 25.7 0.00 0.00 0.00 25 1006.7
20260504184521 22 293 6.4 33.8 0.00 0.00 0.00 25 1006.8
20260504183020 22 211 6.4 19.3 0.00 0.00 0.00 26 1006.8
20260504181517 21 270 9.7 24.1 0.00 0.00 0.00 26 1007.0
20260504180015 21 303 6.4 24.1 0.00 0.00 0.00 27 1007.1
20260504174514 21 280 9.7 17.7 0.00 0.00 0.00 26 1007.4
20260504173011 21 215 8.0 32.2 0.00 0.00 0.00 27 1007.5
20260504171509 21 281 4.8 27.4 0.00 0.00 0.00 28 1007.3
20260504160107 19 266 8.0 27.4 0.00 0.00 0.00 30 1008.3
20260504081532 8 214 0.0 3.2 0.00 0.00 0.00 55 1010.4
20260504050012 5 259 0.0 4.8 0.00 0.00 0.00 63 1010.3